Weather History for KLUK - January, 2013

Change the Weather History Date:

Wednesday, January 23, 2013

  Actual Average (KCVG) Record (KCVG)
Temperature  
Mean Temperature 19 °F 31 °F  
Max Temperature 23 °F 39 °F 68 °F (1967)
Min Temperature 15 °F 23 °F -16 °F (1963)
Degree Days  
Heating Degree Days 46 34  
Month to date heating degree days 782  
Since 1 July heating degree days 2701  
Cooling Degree Days 0 0  
Month to date cooling degree days 0  
Year to date cooling degree days 0  
Moisture  
Dew Point 3 °F    
Average Humidity 50    
Maximum Humidity 63    
Minimum Humidity 42    
Precipitation  
Precipitation 0.00 in 0.09 in 1.57 in (1996)
Month to date precipitation 2.22  
Year to date precipitation 2.22  
Snow  
Snow 0.00 in 0.20 in 5.50 in (1963)
Month to date snowfall 4.6  
Since 1 July snowfall 10.2  
Snow Depth -    
Sea Level Pressure  
Sea Level Pressure 30.30 in    
Wind  
Wind Speed 7 mph (SW)    
Max Wind Speed 12 mph    
Max Gust Speed -    
Visibility 10 miles    
Events Snow    
T = Trace of Precipitation, MM = Missing Value Source: NWS Daily Summary

Daily Weather History Graph

Daily Weather History Graph

Search for Another Location

Airport or City:

Trip Planner

Search our weather history database for the weather conditions in past years. The results will help you decide how hot, cold, wet, or windy it might be!

Date:

Astronomy

Jan. 23, 2013 Rise Set
Actual Time 7:51 AM EST 5:48 PM EST
Civil Twilight 7:22 AM EST 6:17 PM EST
Nautical Twilight 6:49 AM EST 6:49 PM EST
Astronomical Twilight 6:18 AM EST 7:21 PM EST
Moon 2:58 PM EST (1/23) 5:01 AM EST (1/23)
Length of Visible Light 10h 55m
Length of Day
9h 57m
Waxing Gibbous, 89% of the Moon is Illuminated
Jan 23
Waxing Gibbous
Jan 26
Full
Feb 3
Last Quarter
Feb 10
New
Feb 17
First Quarter

Hourly Weather History & Observations

Time (EST) Temp. Windchill Dew Point Humidity Pressure Visibility Wind Dir Wind Speed Gust Speed Precip Events Conditions
12:53 AM 17.1 °F 5.8 °F -0.0 °F 47% 30.40 in 10.0 mi West 9.2 mph - N/A   Overcast
1:53 AM 17.1 °F 5.0 °F -0.0 °F 47% 30.40 in 10.0 mi WNW 10.4 mph - N/A   Overcast
2:53 AM 16.0 °F 7.4 °F -0.9 °F 47% 30.41 in 10.0 mi WNW 5.8 mph - N/A   Overcast
3:53 AM 16.0 °F 2.9 °F -0.9 °F 47% 30.41 in 10.0 mi West 11.5 mph - N/A   Overcast
4:53 AM 15.1 °F 4.2 °F -0.9 °F 49% 30.39 in 10.0 mi West 8.1 mph - N/A   Clear
5:53 AM 15.1 °F 9.4 °F -0.9 °F 49% 30.39 in 10.0 mi WNW 3.5 mph - N/A   Clear
6:53 AM 15.1 °F 5.2 °F 3.0 °F 59% 30.40 in 10.0 mi SW 6.9 mph - N/A   Mostly Cloudy
7:53 AM 16.0 °F 6.3 °F 3.0 °F 57% 30.40 in 10.0 mi SSW 6.9 mph - N/A   Overcast
8:53 AM 17.1 °F 8.7 °F 1.9 °F 52% 30.40 in 10.0 mi SSW 5.8 mph - N/A   Overcast
9:53 AM 18.0 °F 11.1 °F 3.0 °F 52% 30.40 in 10.0 mi SW 4.6 mph - N/A   Overcast
10:53 AM 19.0 °F 7.5 °F 1.9 °F 47% 30.39 in 10.0 mi SSW 10.4 mph - N/A   Overcast
11:53 AM 19.9 °F 11.1 °F -0.0 °F 42% 30.37 in 10.0 mi SW 6.9 mph - N/A   Overcast
12:53 PM 19.9 °F 7.9 °F 1.9 °F 46% 30.32 in 10.0 mi SSW 11.5 mph - N/A   Overcast
1:53 PM 21.0 °F 11.4 °F 6.1 °F 53% 30.29 in 7.0 mi SW 8.1 mph - 0.00 in Snow Light Snow
2:53 PM 21.0 °F 13.4 °F 3.9 °F 48% 30.26 in 10.0 mi SW 5.8 mph - 0.00 in   Overcast
3:53 PM 23.0 °F 14.7 °F 3.9 °F 44% 30.23 in 10.0 mi South 6.9 mph - N/A   Overcast
4:53 PM 23.0 °F 18.4 °F 5.0 °F 46% 30.21 in 10.0 mi SSE 3.5 mph - N/A   Overcast
5:53 PM 23.0 °F - 5.0 °F 46% 30.19 in 10.0 mi Calm Calm - N/A   Overcast
6:53 PM 23.0 °F 18.4 °F 6.1 °F 48% 30.18 in 10.0 mi NNE 3.5 mph - N/A   Overcast
7:53 PM 23.0 °F - 6.1 °F 48% 30.17 in 10.0 mi Calm Calm - N/A   Overcast
8:53 PM 21.9 °F 17.2 °F 7.0 °F 53% 30.16 in 10.0 mi NE 3.5 mph - N/A   Overcast
9:53 PM 23.0 °F - 8.1 °F 53% 30.17 in 10.0 mi Calm Calm - N/A   Overcast
10:53 PM 21.0 °F - 8.1 °F 57% 30.15 in 10.0 mi Calm Calm - N/A   Mostly Cloudy
11:53 PM 21.2 °F 14.9 °F 10.4 °F 63% 30.12 in 10.0 mi South 4.6 mph - N/A   Overcast